www.pogodaiklimat.ru

Погода и климат >> Архив погоды >> Австралия >> Camooweal Township


ПОГОДА в Camooweal Township

  • Прогноз погоды в Camooweal Township
  • Монитор погоды в Camooweal Township
  • Климат города

АРХИВ ПОГОДЫ в Camooweal Township

Время (UTC), дата Ветер
(напр.,м/с)
 
Видим.   Явления Облачность Т
(С)
Тd
(С)
f
(%)
Тe
(С)
Тes
(С)
Комфортность P
(гПа)
Po
(гПа)
Тmin
(С)
Tmax
(С)
R
(мм)
R24
(мм)
S
(см)
02 14.05 ЮВ 7 н/о н/о +23.1 +0.9 23 +22 +22 комфорт 1020.4 993.5 +7.6
03 14.05 Ю 7 н/о н/о +24.3 -0.1 20 +23 +23 комфорт 1019.1 992.3
05 14.05 Ю 6 н/о н/о +26.3 -2.4 15 +24 +24 комфорт 1017.3 990.5
06 14.05 Ю 6 н/о н/о +25.9 -2.7 15 +24 +24 комфорт 1017.2 990.4
08 14.05 Ю 7 н/о н/о +23.9 -2.6 17 +22 +22 комфорт 1018.1 991.3
09 14.05 Ю 4 н/о н/о +20.5 -2.5 21 +20 +20 1018.8 992.0
11 14.05 Ю 5 н/о н/о +18.3 -1.5 26 +18 +18 1019.9 993.1
12 14.05 Ю 5 н/о н/о +17.4 -1.8 27 +17 +17 1020.6 993.7
14 14.05 Ю 5 н/о н/о +15.9 -1.2 31 +15 +15 1020.2 993.3 +26.6
15 14.05 Ю 5 н/о н/о +14.9 -1.2 33 +14 +14 1019.8 993.0
17 14.05 Ю 5 н/о н/о +13.5 -0.9 37 +12 +12 1019.4 992.6
18 14.05 Ю 4 н/о н/о +12.7 -0.9 39 +11 +11 1019.5 992.7
20 14.05 Ю 4 н/о н/о +11.1 -0.1 46 +9 +9 1019.4 992.6
21 14.05 Ю 3 н/о н/о +9.1 0.0 53 +7 +7 1019.7 992.9
23 14.05 Ю 6 н/о н/о +15.5 +0.9 37 +14 +14 1020.3 993.4
00 15.05 ЮВ 7 н/о н/о +19.3 +0.8 29 +19 +19 1020.4 993.5
02 15.05 ЮВ 6 н/о н/о +24.0 -0.3 20 +23 +23 комфорт 1019.2 992.4 +8.1
03 15.05 ЮВ 7 н/о н/о +24.5 -1.3 18 +23 +23 комфорт 1018.4 991.6
05 15.05 ЮВ 6 н/о н/о +27.0 -2.7 14 +24 +24 комфорт 1016.9 990.1
06 15.05 ЮВ 7 н/о н/о +26.4 -4.2 13 +24 +24 комфорт 1016.2 989.5
08 15.05 Ю 6 н/о н/о +24.1 -3.3 16 +22 +22 комфорт 1017.1 990.3
09 15.05 Ю 4 н/о н/о +21.5 -3.1 19 +21 +21 комфорт 1017.9 991.1
11 15.05 Ю 4 н/о н/о +18.3 -2.0 25 +18 +18 1018.9 992.1
12 15.05 Ю 5 н/о н/о +18.1 -2.2 25 +18 +18 1019.2 992.4
14 15.05 Ю 5 н/о н/о +15.8 -1.7 30 +15 +15 1018.8 992.0 +27.4
15 15.05 Ю 5 н/о н/о +15.7 -1.8 30 +15 +15 1018.7 991.9
17 15.05 Ю 5 н/о н/о +14.4 -0.5 36 +13 +13 1018.3 991.5
18 15.05 Ю 6 н/о н/о +14.3 +0.2 38 +13 +13 1018.0 991.2
20 15.05 Ю 5 н/о н/о +13.0 +0.7 43 +11 +11 1018.1 991.3
21 15.05 Ю 6 н/о н/о +12.7 +1.1 45 +11 +11 1018.7 991.9
23 15.05 Ю 8 н/о н/о +16.8 +2.0 37 +16 +16 1019.7 992.9
00 16.05 ЮВ 9 н/о н/о +20.0 +1.4 29 +20 +20 1019.8 993.0
02 16.05 Ю 8 н/о н/о +25.2 +1.3 21 +24 +24 комфорт 1018.5 991.7 +12.7
03 16.05 ЮВ 7 н/о н/о +25.8 +0.5 19 +24 +24 комфорт 1017.6 990.8
05 16.05 Ю 8 н/о н/о +26.9 +0.6 18 +25 +25 комфорт 1016.1 989.4
06 16.05 Ю 8 н/о н/о +26.5 -1.3 16 +24 +24 комфорт 1016.0 989.3
08 16.05 Ю 7 н/о н/о +24.3 -1.5 18 +23 +23 комфорт 1016.7 989.9
09 16.05 Ю 6 н/о н/о +22.6 -0.8 21 +22 +22 комфорт 1017.4 990.6
11 16.05 Ю 5 н/о н/о +19.0 -0.9 26 +19 +19 1019.2 992.4
12 16.05 Ю 7 н/о н/о +19.2 -0.7 26 +19 +19 1019.5 992.7
14 16.05 Ю 6 н/о н/о +17.7 -0.5 29 +17 +17 1019.5 992.7 +27.6
15 16.05 Ю 5 н/о н/о +16.4 -0.8 31 +16 +16 1019.3 992.5
17 16.05 Ю 6 н/о н/о +14.9 -0.8 34 +14 +14 1018.8 992.0
18 16.05 Ю 5 н/о н/о +14.0 -0.1 38 +13 +13 1018.6 991.8
20 16.05 Ю 6 н/о н/о +13.1 +0.5 42 +11 +11 1018.5 991.7
21 16.05 Ю 6 н/о н/о +12.5 +0.6 44 +10 +10 1018.6 991.8
23 16.05 Ю 8 н/о н/о +16.0 +0.6 35 +15 +15 1019.4 992.6
00 17.05 ЮВ 7 н/о н/о +20.2 +1.1 28 +20 +20 1019.5 992.7
02 17.05 ЮВ 8 н/о н/о +24.0 +1.0 22 +23 +23 комфорт 1018.6 991.8 +12.4
03 17.05 ЮВ 8 н/о н/о +26.0 +0.6 19 +24 +24 комфорт 1017.5 990.7
05 17.05 ЮВ 8 н/о н/о +27.5 -0.5 16 +25 +25 комфорт 1015.9 989.2
06 17.05 ЮВ 8 н/о н/о +27.3 -0.7 16 +25 +25 комфорт 1015.7 989.0
08 17.05 ЮВ 7 н/о н/о +25.2 -0.8 18 +23 +23 комфорт 1016.7 989.9
09 17.05 Ю 6 н/о н/о +23.3 -0.9 20 +22 +22 комфорт 1017.4 990.6
11 17.05 Ю 5 н/о н/о +20.6 -1.2 23 +20 +20 1018.5 991.7
12 17.05 Ю 5 н/о н/о +19.5 -1.0 25 +19 +19 1018.8 992.0
14 17.05 Ю 7 н/о н/о +17.8 -0.9 28 +17 +17 1018.9 992.1 +28.4
15 17.05 Ю 8 н/о н/о +17.4 -0.3 30 +16 +16 1018.8 992.0
17 17.05 Ю 6 н/о н/о +16.2 -0.1 33 +15 +15 1018.8 992.0
18 17.05 Ю 6 н/о н/о +15.2 -0.1 35 +14 +14 1018.7 991.9
20 17.05 Ю 4 н/о н/о +13.4 +0.1 40 +12 +12 1018.8 992.0
21 17.05 Ю 4 н/о н/о +12.6 0.0 42 +11 +11 1019.3 992.5
23 17.05 Ю 6 н/о н/о +16.9 -0.8 30 +16 +16 1020.0 993.2
00 18.05 ЮВ 7 н/о н/о +20.3 -0.3 25 +20 +20 1020.3 993.4
02 18.05 В 8 н/о н/о +25.3 +0.8 20 +24 +24 комфорт 1018.8 992.0 +12.3
03 18.05 ЮВ 8 н/о н/о +25.7 -0.4 18 +24 +24 комфорт 1018.0 991.2
05 18.05 ЮВ 9 н/о н/о +27.3 -1.6 15 +25 +25 комфорт 1015.9 989.2
06 18.05 ЮВ 9 н/о н/о +26.5 -2.2 15 +24 +24 комфорт 1015.5 988.8
08 18.05 ЮВ 8 н/о н/о +24.4 -1.4 18 +23 +23 комфорт 1015.8 989.1
09 18.05 Ю 4 н/о н/о +22.0 -1.3 21 +21 +21 комфорт 1016.7 989.9
11 18.05 Ю 5 н/о н/о +19.7 -2.0 23 +19 +19 1018.1 991.3
12 18.05 Ю 5 н/о н/о +17.9 -2.9 24 +18 +18 1018.3 991.5
14 18.05 Ю 6 н/о н/о +16.9 -4.3 23 +16 +16 1018.8 992.0 +27.7
15 18.05 Ю 5 н/о н/о +15.7 -4.2 25 +15 +15 1018.2 991.4
17 18.05 Ю 6 н/о н/о +14.1 -5.1 26 +13 +13 1017.5 990.7
18 18.05 Ю 5 н/о н/о +13.4 -5.2 27 +12 +12 1017.4 990.6
20 18.05 Ю 5 н/о н/о +12.3 -3.5 33 +10 +10 1017.6 990.8
21 18.05 Ю 5 н/о н/о +12.1 -2.5 36 +10 +10 1017.6 990.8
23 18.05 Ю 7 н/о н/о +15.9 -1.2 31 +15 +15 1018.6 991.8
00 19.05 Ю 7 н/о н/о +19.1 -0.8 26 +19 +19 1018.7 991.9
02 19.05 ЮВ 6 н/о н/о +24.5 +0.8 21 +23 +23 комфорт 1017.7 990.9 +11.7
03 19.05 ЮВ 7 н/о н/о +25.6 +2.3 22 +24 +24 комфорт 1016.8 990.0
05 19.05 Ю 5 н/о н/о +27.6 +3.3 21 +26 +26 жарко 1015.3 988.6
06 19.05 Ю 6 н/о н/о +27.0 +4.1 23 +26 +26 жарко 1015.2 988.5
08 19.05 Ю 5 н/о н/о +25.0 +1.2 21 +24 +24 комфорт 1015.9 989.2
09 19.05 Ю 5 н/о н/о +23.7 +1.4 23 +23 +23 комфорт 1016.6 989.8
11 19.05 Ю 4 н/о н/о +18.5 +0.6 30 +19 +19 1018.3 991.5
12 19.05 Ю 5 н/о н/о +19.2 +1.2 30 +19 +19 1018.4 991.6
14 19.05 Ю 6 н/о н/о +19.7 +0.7 28 +20 +20 1018.2 991.4 +28.9
15 19.05 Ю 6 н/о н/о +18.3 -0.5 28 +18 +18 1018.1 991.3
17 19.05 Ю 6 н/о н/о +16.9 -1.2 29 +16 +16 1017.6 990.8
18 19.05 Ю 6 н/о н/о +15.8 -1.3 31 +15 +15 1017.5 990.7
20 19.05 Ю 6 н/о н/о +14.5 -1.6 33 +13 +13 1017.3 990.5
21 19.05 Ю 6 н/о н/о +13.7 -1.5 35 +12 +12 1017.7 990.9
23 19.05 Ю 5 н/о н/о +14.9 -1.2 33 +14 +14 1018.9 992.1
00 20.05 ЮВ 7 н/о н/о +21.0 +0.2 25 +21 +21 комфорт 1018.9 992.1
02 20.05 ЮВ 7 н/о н/о +26.6 +3.2 22 +25 +25 комфорт 1018.3 991.5 +13.4
03 20.05 ЮВ 6 н/о н/о +27.8 +4.8 23 +27 +27 жарко 1017.6 990.8
05 20.05 ЮВ 6 н/о н/о +28.9 +6.9 25 +28 +28 жарко 1016.1 989.4
06 20.05 ЮВ 6 н/о н/о +29.9 +6.5 23 +29 +29 жарко 1015.9 989.2
08 20.05 ЮВ 6 н/о н/о +27.0 +5.9 26 +26 +26 жарко 1016.6 989.8
09 20.05 ЮВ 4 н/о н/о +24.6 +5.4 29 +24 +24 комфорт 1017.6 990.8
11 20.05 Ю 5 н/о н/о +22.5 +3.6 29 +22 +22 комфорт 1019.2 992.4
12 20.05 Ю 4 н/о н/о +20.4 +3.2 32 +21 +21 комфорт 1019.6 992.8
14 20.05 Ю 4 н/о н/о +19.0 +2.4 33 +19 +19 1019.3 992.5 +30.0
15 20.05 Ю 4 н/о н/о +18.2 +2.1 34 +18 +18 1019.0 992.2
17 20.05 Ю 4 н/о н/о +17.3 +1.3 34 +17 +17 1018.8 992.0
18 20.05 ЮВ 6 н/о н/о +17.3 +0.9 33 +17 +17 1018.7 991.9
20 20.05 ЮВ 6 н/о н/о +16.3 +2.0 38 +15 +15 1019.2 992.4
21 20.05 ЮВ 6 н/о н/о +15.7 +1.8 39 +15 +15 1020.0 993.2
23 20.05 ЮВ 8 н/о н/о +19.2 +1.7 31 +19 +19 1021.0 994.1
00 21.05 ЮВ 10 н/о н/о +21.5 +1.7 27 +21 +21 комфорт 1021.6 994.7

 

Местоположение метеостанции Camooweal Township (Квинсленд, Австралия): широта -19.91 долгота 138.11 высота над уровнем моря 231 м.

В архиве по умолчанию представлена погода в Camooweal Township за последнюю неделю. Архивные данные за месяц целиком и за предыдущие месяцы, начиная с января 2011 года, Вы можете получить, выбрав интересующий диапазон дат из раскрывающегося списка и нажав кнопку "Ввод!".


*Определитесь, кто Вы:
робот инопланетянин человек

Внимание! Время в таблицах - всемирное. Для получения местного времени необходимо прибавить поправку, которая в Camooweal Township равна 10 ч.

Смотрите также архив погоды в соседних городах и на ближайших метеорологических станциях:

Погода в Century Mine (Квинсленд, Австралия) (143 км)
Погода в New May Downs (Квинсленд, Австралия) (149 км)
Погода в Mount Isa (Квинсленд, Австралия) (167 км)
Погода в Lake Julius Aws (Квинсленд, Австралия) (171 км)
Погода в Cloncurry Composite (Квинсленд, Австралия) (263 км)
Погода в Phosphate Hill Airport (Квинсленд, Австралия) (282 км)
Погода в Burketown Airport (Квинсленд, Австралия) (283 км)
Погода в Trepell Airport (Квинсленд, Австралия) (358 км)
Погода в Mornington Island (Квинсленд, Австралия) (378 км)
Погода в Julia Creek Airport (Квинсленд, Австралия) (387 км)

Пояснения к столбцам:

Ветер - указаны скорость ветра в м/с - средняя за 10 мин, порывы в срок и между сроками (в фигурных скобках) и направление, откуда дует ветер: С - северный, СВ - северо-восточный, В - восточный, ЮВ - юго-восточный, Ю - южный, ЮЗ - юго-западный, З - западный, СЗ - северо-западный.
Видимость - горизонтальная дальность видимости в метрах или километрах. При видимости от 1 до 10 км при отсутствии осадков обычно наблюдается дымка, при ухудшении видимости до 1 км и менее - туман. В сухую погоду видимость может ухудшаться дымом, пылью или мглою.
Явления - указаны атмосферные явления, наблюдавшиеся в срок или в последний час перед сроком; фигурными скобками обозначены явления, наблюдавшиеся между сроками (за 1-3 часа до срока); квадратными скобками обозначены град или гололедные отложения с указанием их диаметра в мм.
Облачность - указаны через наклонную черту общая и нижняя облачность в баллах и высота нижней границы облаков в метрах; квадратными скобками обозначены формы облаков: Ci - перистые, Cs - перисто-слоистые, Cc - перисто-кучевые, Ac - высококучевые, As - высокослоистые, Sc - слоисто-кучевые, Ns - слоисто-дождевые, Cu - кучевые, Cb - кучево-дождевые. Подробнее классификацию облаков см. в Атласе облаков (PDF).
T - Температура воздуха - температура, измеренная на высоте 2 м над землей.
Td - Температура точки росы - температура, при понижении до которой содержащийся в воздухе водяной пар достигнет насыщения.
f - Относительная влажность воздуха - влажноcть воздуха, измеренная на высоте 2 м над землей.
Te - Эффективная температура - температура, которую ощущает одетый по сезону человек в тени. Характеристика душности погоды. При расчете учитывается влияние влажности воздуха и скорости ветра на теплоощущения человека.
Tes - Эффективная температура на солнце - температура, которую ощущает человек, с поправкой на солнечный нагрев. Характеристика знойности погоды. Зависит от высоты солнца над горизонтом, облачности и скорости ветра. Ночью, в пасмурную погоду, а также при ветре 12 м/с и более поправка равна нулю.
P - Атмосферное давление - приведенное к уровню моря атмосферное давление.
Po - Атмосферное давление - измеренное на уровне метеостанции атмосферное давление.
Tmin - Минимальная температура - минимум температуры воздуха на высоте 2 м над землей.
Tmax - Максимальная температура - максимум температуры воздуха на высоте 2 м над землей.
R - Количество осадков - Количество выпавших осадков за период времени, мм. При наведении курсора мыши на число - период времени, за который выпало указанное количество осадков.
R24 - Количество осадков - Количество выпавших осадков за 24 часа, мм.
S - Снежный покров - Высота снежного покрова, см. При наведении курсора мыши на число - состояние снежного покрова и степень покрытия местности в баллах.